Glendale Luke AFB, AZ

9:22 AM MST on September 18, 2019 (GMT -0700)
Luke Air Force Base

Weather History for KLUF - August, 2019

Change the Weather History Date:

Sunday, August 25, 2019

  Actual Average Record
Temperature  
Mean Temperature 92 °F -  
Max Temperature 102 °F 105 °F 116 °F (1985)
Min Temperature 82 °F 71 °F 59 °F (1941)
Cooling Degree Days 27    
Growing Degree Days 42 (Base 50)    
Moisture  
Dew Point 67 °F    
Average Humidity 41    
Maximum Humidity 65    
Minimum Humidity 27    
Precipitation  
Precipitation 0.00 in - - ()
Sea Level Pressure  
Sea Level Pressure 29.84 in    
Wind  
Wind Speed 15 mph (SW)    
Max Wind Speed 20 mph    
Max Gust Speed 22 mph    
Visibility 10 miles    
Events Rain    
Averages and records for this station are not official NWS values.
T = Trace of Precipitation, MM = Missing Value Source: NWS Daily Summary

Daily Weather History Graph

Daily Weather History Graph

Search for Another Location

Airport or City:

Astronomy

Aug. 25, 2019 Rise Set
Actual Time 5:58 AM MST 7:04 PM MST
Civil Twilight 5:32 AM MST 7:29 PM MST
Nautical Twilight 5:02 AM MST 8:00 PM MST
Astronomical Twilight 4:30 AM MST 8:31 PM MST
Moon 12:45 AM MST (8/25) 3:18 PM MST (8/25)
Length of Visible Light 13h 56m
Length of Day
13h 05m
Waning Crescent, 28% of the Moon is Illuminated
Aug 25
Waning Crescent
Aug 30
New
Sep 5
First Quarter
Sep 13
Full
Sep 21
Last Quarter

Hourly Weather History & Observations

Time (MST) Temp. Heat Index Dew Point Humidity Pressure Visibility Wind Dir Wind Speed Gust Speed Precip Events Conditions
12:58 AM 88.9 °F 91.4 °F 66.0 °F 47% 29.86 in 10.0 mi SW 17.3 mph - N/A   Clear
1:58 AM 87.1 °F 90.9 °F 68.4 °F 54% 29.85 in 10.0 mi SW 19.6 mph - N/A   Clear
2:58 AM 85.6 °F 89.1 °F 68.5 °F 56% 29.87 in 10.0 mi SW 18.4 mph - N/A   Clear
3:58 AM 84.7 °F 88.8 °F 69.3 °F 60% 29.87 in 10.0 mi SW 16.1 mph - N/A   Clear
4:58 AM 83.8 °F 88.1 °F 69.8 °F 63% 29.88 in 10.0 mi SW 13.8 mph - N/A   Clear
5:58 AM 82.9 °F 87.0 °F 70.0 °F 65% 29.91 in 10.0 mi SW 13.8 mph - N/A   Clear
6:58 AM 83.7 °F 88.0 °F 70.2 °F 64% 29.93 in 10.0 mi SW 15.0 mph - N/A   Clear
7:58 AM 86.0 °F 90.4 °F 69.4 °F 58% 29.94 in 10.0 mi WSW 13.8 mph - N/A   Clear
8:58 AM 88.2 °F 92.5 °F 69.3 °F 53% 29.94 in 10.0 mi SW 15.0 mph - N/A   Clear
9:58 AM 90.5 °F 95.5 °F 69.3 °F 50% 29.94 in 10.0 mi SW 16.1 mph - N/A   Clear
10:58 AM 93.6 °F 98.4 °F 68.4 °F 44% 29.92 in 10.0 mi SSW 10.4 mph - N/A   Clear
11:09 AM 95.0 °F 99.5 °F 68.0 °F 41% 29.91 in 10.0 mi WSW 13.8 mph - N/A   Clear
11:22 AM 95.0 °F 99.5 °F 68.0 °F 41% 29.91 in 10.0 mi SSW 8.1 mph 17.3 mph N/A Rain Light Rain
11:31 AM 95.0 °F 99.5 °F 68.0 °F 41% 29.90 in 10.0 mi SW 15.0 mph - N/A   Partly Cloudy
11:58 AM 95.0 °F 99.5 °F 68.2 °F 41% 29.89 in 10.0 mi SSW 15.0 mph 18.4 mph 0.00 in   Clear
12:41 PM 96.8 °F 101.8 °F 68.0 °F 39% 29.87 in 10.0 mi SSW 11.5 mph - N/A   Clear
12:58 PM 97.5 °F 102.6 °F 68.4 °F 38% 29.87 in 10.0 mi South 9.2 mph - N/A   Partly Cloudy
1:15 PM 98.6 °F 102.8 °F 66.2 °F 35% 29.86 in 10.0 mi SW 15.0 mph 20.7 mph N/A   Partly Cloudy
1:58 PM 100.2 °F 104.6 °F 66.7 °F 33% 29.84 in 10.0 mi SW 10.4 mph 21.9 mph N/A   Clear
2:58 PM 101.1 °F 104.9 °F 65.7 °F 31% 29.80 in 10.0 mi SSW 13.8 mph 19.6 mph N/A   Clear
3:07 PM 102.2 °F 106.9 °F 66.2 °F 31% 29.80 in 10.0 mi WSW 15.0 mph 18.4 mph N/A   Clear
3:23 PM 102.2 °F 106.9 °F 66.2 °F 31% 29.79 in 10.0 mi SSW 12.7 mph 20.7 mph N/A   Clear
3:58 PM 102.0 °F 104.6 °F 63.7 °F 28% 29.78 in 10.0 mi SW 12.7 mph 16.1 mph N/A   Clear
4:02 PM 102.2 °F 105.5 °F 64.4 °F 29% 29.78 in 10.0 mi WSW 12.7 mph - N/A   Clear
4:29 PM 102.2 °F 104.2 °F 62.6 °F 27% 29.77 in 10.0 mi WSW 16.1 mph 21.9 mph N/A   Clear
4:58 PM 102.7 °F 105.8 °F 63.3 °F 28% 29.75 in 10.0 mi SW 9.2 mph - N/A   Clear
5:58 PM 101.5 °F 103.6 °F 63.1 °F 28% 29.75 in 10.0 mi SW 9.2 mph - N/A   Clear
6:58 PM 99.9 °F 101.5 °F 62.8 °F 29% 29.75 in 10.0 mi SW 12.7 mph - N/A   Clear
7:58 PM 98.2 °F 99.9 °F 62.4 °F 31% 29.75 in 10.0 mi SW 13.8 mph - N/A   Clear
8:58 PM 96.8 °F 98.0 °F 62.8 °F 32% 29.77 in 10.0 mi WSW 12.7 mph - N/A   Clear
10:58 PM 94.8 °F 95.8 °F 62.1 °F 34% 29.75 in 10.0 mi WSW 10.4 mph - N/A   Clear
11:58 PM 93.4 °F 94.7 °F 63.9 °F 37% 29.75 in 10.0 mi SW 6.9 mph - N/A   Clear